Probability
39 39 55 55 39 45 45 52 45 35 39 26 23 19 35 32 23 13 23 39 42 42 42 35 39 32 35 32 32 29 32 32 29 26 29 32 32 32 26 29 35 39 35
45 42 45 52 42 48 55 55 39 45 39 32 23 26 26 26 23 23 29 23 39 42 42 39 39 39 35 29 29 29 29 32 35 32 32 32 35 39 29 32 26 26 35
45 48 45 42 45 48 52 52 45 42 39 32 26 26 26 26 23 26 26 26 29 35 35 29 35 39 45 29 29 35 35 35 35 39 32 32 35 39 35 29 29 19 29
45 48 39 42 52 52 52 48 42 45 35 39 35 19 19 32 29 29 26 29 32 29 29 32 29 29 42 42 42 39 39 39 39 35 42 42 39 39 32 29 23 26 29
39 35 39 42 42 48 52 39 42 39 42 45 26 35 23 29 39 29 32 29 29 32 35 39 39 39 48 48 45 45 39 39 39 35 35 35 39 42 39 35 35 32 29
32 32 29 39 29 35 39 42 48 45 48 45 23 26 26 26 32 35 32 29 32 35 35 32 42 39 45 48 45 39 32 32 32 39 42 39 35 42 42 42 39 39 32
29 32 26 39 32 32 35 32 42 45 42 39 29 29 32 23 26 39 29 26 26 29 32 39 42 39 42 45 45 45 39 35 35 39 39 39 35 39 42 42 42 35 29
32 26 32 35 35 45 39 42 42 42 42 35 48 45 29 39 52 23 39 35 26 32 29 32 35 48 45 39 35 39 29 26 32 39 39 42 42 39 32 32 39 32 32
29 35 32 32 35 32 35 45 48 48 39 42 39 39 29 23 35 32 39 35 45 45 29 29 35 39 35 39 35 23 26 26 29 35 35 39 42 42 39 35 35 26 23
35 35 39 35 39 39 42 39 39 42 48 45 42 45 35 35 39 39 39 32 35 39 39 26 29 35 35 35 32 26 26 29 26 26 35 32 29 32 32 32 32 29 32
39 32 35 48 52 39 42 39 39 48 42 39 42 42 39 48 45 42 32 29 29 26 32 32 35 35 35 35 35 29 19 19 19 19 26 29 29 29 32 32 32 29 29
39 32 42 48 52 39 55 52 45 45 45 45 45 39 39 39 45 35 32 42 35 16 19 23 19 29 32 39 29 19 19 16 13 10 13 16 29 32 29 32 35 29 26
35 39 35 42 45 45 45 42 42 39 42 48 45 42 42 39 42 39 29 29 29 23 26 23 26 26 26 26 26 16 16 10 10 6 6 10 16 26 26 32 32 29 19
29 39 35 32 29 35 35 42 39 39 45 48 42 45 45 42 42 39 39 23 19 26 26 23 32 26 26 29 26 13 19 6 3 3 6 3 3 3 6 13 19 26 29
29 32 32 35 32 35 39 45 42 42 39 39 39 42 39 29 35 32 39 32 26 23 19 19 29 23 26 26 13 19 23 13 6 3 3 0 3 3 0 0 0 3 3
45 42 42 39 35 39 39 42 39 35 35 35 45 39 35 29 39 35 35 32 29 26 23 16 29 23 26 13 16 26 26 10 6 3 3 0 0 0 0 0 0 0 0
55 48 45 42 39 39 35 35 29 35 35 32 29 32 32 32 32 29 26 26 26 26 26 23 23 29 32 26 19 19 23 26 23 3 3 0 0 0 0 0 0 0 0
55 48 42 39 32 39 32 32 29 32 29 26 29 29 32 32 39 35 32 26 29 32 32 35 29 32 39 32 32 29 13 13 23 10 3 0 0 0 0 0 0 0 0
52 45 42 45 42 29 32 32 32 32 29 26 26 26 32 32 35 35 32 29 29 26 35 39 32 39 32 29 32 35 19 13 13 13 6 3 0 0 0 0 0 0 0
42 45 39 39 39 29 29 29 29 29 26 26 26 32 35 35 35 32 29 26 26 32 32 35 35 32 29 29 29 29 26 26 19 13 13 13 3 0 0 0 0 0 0
35 39 39 39 35 26 23 23 23 16 29 29 32 32 32 29 23 23 16 23 23 23 26 29 29 29 32 26 23 26 23 19 19 23 26 23 19 13 6 0 0 0 0
23 29 32 32 29 19 6 3 13 16 23 29 32 29 29 26 23 10 6 6 16 19 23 23 29 29 32 32 29 23 19 23 23 26 26 23 26 23 23 19 6 0 0
19 23 23 26 19 16 6 0 0 13 19 26 26 26 19 16 19 23 13 6 3 3 3 23 23 26 29 26 23 29 26 26 26 26 26 23 23 19 16 16 3 3 0
23 23 19 16 16 16 10 0 0 3 23 26 26 26 23 23 16 19 19 19 23 23 19 13 19 26 23 26 26 23 23 26 19 26 23 13 19 23 19 16 3 3 0
26 19 19 19 19 13 6 0 0 19 23 23 26 23 23 23 16 13 19 19 19 19 19 13 10 10 10 6 6 23 23 19 19 19 16 16 13 16 23 16 10 3 0
19 16 16 16 16 16 10 0 0 19 19 19 23 19 16 16 10 10 16 16 16 16 16 16 16 13 10 13 3 10 23 23 23 19 16 16 16 13 16 13 19 6 3
Height
5870 5870 5869 5869 5868 5868 5867 5867 5867 5866 5866 5865 5865 5864 5864 5864 5863 5862 5861 5860 5860 5860 5860 5860 5860 5859 5859 5858 5859 5859 5859 5859 5860 5861 5862 5862 5863 5863 5864 5865 5866 5867 5868
5872 5871 5870 5869 5868 5868 5868 5867 5867 5866 5866 5865 5864 5864 5863 5862 5862 5861 5860 5859 5859 5859 5859 5859 5858 5858 5857 5857 5857 5857 5857 5857 5858 5858 5859 5859 5860 5861 5861 5862 5863 5864 5865
5873 5872 5871 5870 5869 5868 5867 5867 5866 5866 5865 5865 5864 5863 5863 5862 5861 5860 5859 5858 5857 5857 5857 5857 5856 5856 5856 5855 5855 5855 5855 5855 5855 5856 5856 5856 5857 5857 5858 5859 5860 5861 5861
5874 5873 5872 5871 5870 5869 5868 5867 5866 5865 5865 5864 5863 5863 5862 5861 5860 5859 5858 5857 5856 5856 5855 5855 5854 5854 5854 5854 5853 5853 5852 5852 5852 5853 5853 5853 5853 5854 5855 5855 5856 5857 5858
5874 5873 5872 5871 5870 5869 5868 5866 5865 5865 5864 5863 5862 5862 5861 5860 5859 5858 5857 5856 5855 5854 5854 5853 5852 5852 5851 5851 5850 5850 5849 5849 5849 5849 5849 5849 5850 5850 5850 5851 5852 5852 5853
5875 5874 5873 5871 5870 5868 5867 5866 5865 5864 5863 5863 5862 5861 5860 5859 5858 5857 5855 5854 5853 5852 5852 5851 5850 5850 5849 5848 5847 5846 5845 5845 5845 5844 5844 5845 5845 5845 5846 5846 5847 5848 5848
5875 5874 5873 5871 5870 5868 5867 5866 5864 5864 5863 5862 5861 5860 5859 5857 5856 5855 5853 5852 5851 5850 5849 5849 5848 5847 5846 5845 5844 5843 5841 5841 5841 5841 5841 5841 5841 5841 5841 5841 5842 5843 5843
5875 5873 5872 5871 5869 5868 5866 5865 5864 5862 5861 5860 5859 5858 5857 5856 5854 5853 5851 5850 5849 5848 5847 5846 5845 5844 5842 5841 5840 5838 5837 5837 5837 5837 5836 5836 5836 5836 5836 5836 5837 5837 5838
5874 5873 5871 5870 5868 5866 5865 5863 5862 5861 5860 5858 5857 5856 5855 5853 5852 5851 5849 5848 5846 5845 5844 5843 5842 5840 5839 5837 5836 5833 5832 5832 5832 5832 5832 5831 5831 5831 5831 5831 5831 5832 5832
5873 5871 5870 5868 5866 5865 5863 5862 5860 5859 5858 5856 5855 5854 5853 5851 5849 5848 5847 5845 5844 5842 5841 5840 5839 5837 5836 5834 5832 5830 5829 5829 5828 5828 5827 5827 5826 5826 5825 5825 5826 5826 5826
5872 5870 5868 5866 5865 5863 5861 5860 5858 5856 5855 5854 5853 5851 5850 5848 5847 5845 5844 5842 5841 5839 5838 5836 5835 5833 5832 5830 5828 5827 5826 5825 5824 5823 5822 5821 5821 5820 5820 5820 5819 5819 5819
5870 5868 5866 5864 5862 5860 5859 5857 5855 5854 5852 5851 5850 5848 5847 5845 5843 5842 5840 5838 5837 5835 5834 5832 5831 5830 5828 5826 5824 5823 5821 5820 5819 5817 5817 5816 5815 5815 5814 5813 5813 5813 5813
5867 5865 5863 5861 5859 5857 5856 5854 5852 5851 5849 5848 5846 5845 5843 5842 5840 5838 5837 5835 5833 5831 5830 5828 5826 5825 5823 5821 5820 5818 5816 5815 5814 5812 5811 5810 5809 5809 5808 5807 5807 5806 5806
5865 5862 5860 5858 5856 5854 5852 5850 5848 5847 5845 5844 5842 5841 5839 5837 5836 5834 5832 5830 5828 5826 5824 5823 5821 5820 5818 5816 5814 5813 5811 5809 5808 5806 5805 5804 5803 5802 5801 5800 5800 5799 5799
5862 5859 5857 5855 5853 5850 5848 5846 5844 5842 5840 5839 5837 5836 5834 5833 5831 5829 5827 5826 5824 5822 5819 5817 5816 5814 5812 5810 5808 5807 5805 5803 5802 5800 5799 5797 5796 5795 5794 5793 5793 5792 5792
5858 5856 5853 5851 5849 5846 5844 5842 5840 5837 5836 5834 5832 5831 5829 5827 5826 5824 5822 5820 5818 5816 5814 5812 5809 5807 5805 5803 5802 5800 5798 5796 5795 5793 5792 5790 5789 5788 5787 5786 5785 5784 5784
5854 5852 5849 5846 5844 5841 5839 5837 5834 5832 5830 5828 5827 5825 5823 5822 5820 5818 5816 5814 5812 5810 5808 5805 5803 5801 5798 5797 5795 5793 5791 5789 5788 5786 5785 5784 5782 5781 5780 5779 5778 5777 5776
5849 5847 5844 5841 5839 5836 5833 5831 5828 5826 5824 5822 5820 5819 5817 5815 5813 5811 5809 5807 5805 5803 5801 5798 5796 5794 5792 5789 5788 5786 5784 5782 5780 5779 5777 5776 5775 5774 5772 5772 5771 5770 5769
5844 5841 5838 5836 5833 5830 5828 5825 5822 5820 5818 5816 5814 5812 5810 5808 5806 5804 5802 5800 5798 5796 5793 5791 5789 5786 5785 5783 5780 5778 5777 5775 5773 5771 5770 5768 5767 5766 5765 5764 5763 5762 5761
5838 5835 5833 5830 5827 5824 5822 5819 5816 5814 5812 5810 5807 5805 5803 5801 5799 5797 5795 5793 5790 5788 5786 5784 5781 5779 5777 5775 5773 5771 5769 5767 5765 5763 5762 5760 5759 5758 5757 5756 5755 5754 5753
5832 5829 5827 5824 5821 5818 5816 5813 5810 5807 5805 5803 5800 5798 5796 5794 5792 5790 5787 5785 5783 5780 5778 5776 5774 5772 5770 5768 5766 5764 5762 5759 5757 5755 5754 5752 5751 5750 5749 5747 5747 5746 5745
5826 5823 5820 5817 5814 5811 5809 5805 5803 5800 5798 5796 5793 5791 5789 5787 5785 5782 5780 5777 5775 5773 5771 5769 5767 5765 5763 5761 5758 5756 5754 5752 5750 5748 5746 5744 5743 5742 5741 5740 5739 5738 5738
5820 5817 5814 5810 5807 5804 5802 5799 5796 5793 5791 5788 5786 5784 5782 5779 5777 5774 5772 5769 5767 5765 5763 5761 5759 5757 5755 5753 5751 5748 5746 5745 5742 5740 5738 5736 5735 5734 5733 5732 5731 5731 5730
5813 5810 5807 5804 5800 5797 5795 5792 5789 5786 5783 5781 5779 5776 5774 5771 5769 5766 5764 5762 5759 5757 5755 5752 5751 5749 5747 5745 5743 5741 5739 5737 5735 5733 5731 5729 5728 5727 5725 5724 5724 5723 5722
5806 5803 5800 5797 5793 5790 5787 5784 5781 5778 5776 5773 5771 5769 5766 5764 5762 5759 5756 5754 5751 5749 5746 5744 5742 5740 5738 5736 5734 5733 5731 5729 5727 5725 5724 5722 5720 5719 5718 5717 5716 5715 5714
5799 5796 5792 5789 5786 5783 5779 5776 5774 5771 5768 5766 5763 5761 5759 5756 5754 5751 5748 5746 5743 5741 5738 5736 5734 5732 5730 5728 5726 5724 5722 5721 5719 5717 5716 5714 5713 5711 5710 5709 5707 5707 5706
Wind_Speed
5 4 4 4 3 2 1 0 1 1 1 3 4 4 4 4 5 6 6 6 7 8 8 7 7 7 7 8 8 7 8 10 12 12 13 14 14 14 15 14 14 14 14
5 5 5 4 4 3 1 1 2 2 2 3 2 2 3 4 5 6 6 6 7 8 8 9 8 8 8 8 9 9 9 9 10 12 13 14 15 15 14 15 15 15 16
6 6 5 5 4 3 2 2 2 2 2 2 2 2 3 4 4 5 5 5 6 7 8 8 8 8 8 9 10 11 11 12 12 12 13 13 14 14 15 16 16 17 17
7 7 7 6 5 4 3 3 2 2 2 3 3 3 3 4 4 5 6 6 7 7 8 8 9 9 9 10 10 11 12 13 13 14 15 15 15 16 16 17 18 18 19
7 7 7 7 7 6 5 5 4 3 4 4 4 4 5 5 5 6 7 8 8 9 9 9 9 10 11 11 11 12 13 14 14 15 16 16 16 16 17 18 18 19 19
8 7 8 8 8 7 6 6 5 5 6 6 6 6 6 7 7 8 9 10 10 10 10 10 10 11 12 12 13 13 14 14 14 15 15 16 17 17 18 19 19 19 20
8 7 8 8 8 7 8 8 7 7 7 7 8 8 8 8 9 10 11 11 11 10 10 10 11 12 12 13 14 15 16 15 15 15 15 17 18 19 19 19 20 20 20
9 8 9 9 9 8 8 8 8 8 8 9 9 10 10 10 10 11 11 12 12 12 12 12 12 12 13 13 15 15 15 15 15 16 17 17 18 18 19 19 20 20 21
10 10 10 10 10 10 10 10 9 9 10 10 10 10 11 11 12 12 12 12 12 13 13 13 13 13 14 15 15 15 16 16 16 17 18 18 18 18 19 19 19 21 21
11 11 11 11 11 11 11 11 11 11 11 11 11 11 12 13 13 13 13 13 13 14 14 14 14 15 15 16 16 16 16 17 17 18 18 19 20 20 19 20 20 21 21
12 12 12 12 12 12 12 13 12 12 12 12 12 13 13 14 14 13 13 14 14 14 15 15 16 16 16 17 17 16 17 17 18 19 19 20 20 21 21 22 21 22 22
14 13 14 14 14 14 14 15 14 13 13 13 14 14 14 14 15 15 15 15 15 16 16 17 17 17 17 18 18 18 19 18 19 19 20 21 21 22 22 23 23 23 23
15 15 15 15 15 16 16 16 16 16 15 15 15 16 16 16 16 16 17 17 17 18 18 18 18 19 19 19 20 20 20 20 20 20 21 22 22 23 23 24 24 24 24
16 16 16 17 17 18 18 18 19 18 17 17 17 18 18 17 18 18 18 18 19 20 21 20 20 21 21 21 22 21 21 22 22 21 21 22 22 22 22 23 24 24 25
18 18 18 18 19 19 19 20 20 19 18 18 19 19 19 19 19 19 18 19 20 20 21 22 22 23 23 23 23 23 24 24 24 23 23 22 23 23 23 24 24 25 25
19 19 20 20 21 21 21 21 21 20 20 20 20 20 20 20 20 20 20 21 21 21 22 23 24 25 24 24 24 25 25 25 25 25 25 24 23 23 24 25 25 26 26
21 21 22 23 23 23 22 21 21 21 22 21 21 21 21 22 20 21 21 22 22 23 23 24 24 25 25 25 25 26 26 26 26 26 26 26 25 25 25 25 25 25 25
22 23 24 24 25 24 24 23 23 23 22 22 22 23 23 22 22 23 23 23 24 24 25 25 25 25 25 26 26 26 26 27 27 27 27 26 26 26 26 26 26 26 26
23 24 25 26 25 25 25 25 24 24 23 24 24 24 24 24 24 24 24 24 24 25 25 26 25 25 25 26 27 27 27 27 27 27 26 26 26 27 27 27 27 27 27
25 25 25 25 26 26 25 25 25 24 24 24 24 24 24 25 25 26 25 25 25 25 25 26 25 25 25 25 26 27 27 27 27 27 27 26 27 27 27 28 27 27 26
25 25 25 26 26 27 27 26 25 25 24 25 25 25 25 25 26 27 26 26 26 26 26 26 25 26 26 26 27 27 27 27 28 28 27 28 28 28 28 27 26 27 26
25 25 26 26 26 27 27 27 26 26 26 26 26 25 26 26 26 27 26 26 26 26 26 27 27 27 27 27 27 27 27 27 27 27 28 28 28 27 27 27 27 27 27
26 26 27 27 27 27 27 26 26 27 27 27 26 26 26 27 27 27 27 27 27 27 27 28 27 27 27 27 27 27 27 27 27 27 27 27 26 26 27 27 27 27 27
27 27 27 28 28 28 28 28 28 27 27 26 26 26 26 26 27 27 27 27 27 27 27 28 28 28 27 27 27 27 27 27 27 26 26 26 26 25 26 26 26 27 27
28 28 28 28 29 29 29 29 28 27 26 27 26 26 27 27 27 27 28 27 27 27 28 28 28 27 27 27 27 27 27 27 27 27 26 26 26 26 26 27 27 27 28
28 28 29 29 30 29 29 29 28 27 27 26 27 27 28 28 28 28 28 28 28 28 28 28 28 28 27 27 28 28 28 28 27 26 26 26 27 27 27 27 27 27 28
Wind_Direction
67 65 54 46 39 35 107 248 284 303 263 273 273 269 272 278 282 283 279 274 270 270 270 268 271 272 265 257 260 259 259 253 248 247 248 246 244 243 245 248 248 248 246
55 57 44 37 29 25 37 355 325 328 322 298 299 287 290 292 291 293 289 278 272 270 274 275 271 270 264 257 258 260 260 261 257 251 251 251 250 247 246 247 248 248 248
45 43 39 37 28 19 11 351 343 325 329 321 311 303 304 302 299 302 297 288 283 278 278 280 280 278 274 263 257 259 260 259 257 255 254 252 252 250 248 249 249 250 251
39 36 32 33 28 15 3 353 341 326 316 320 315 315 309 307 307 307 304 299 293 286 281 282 284 282 277 273 266 263 263 262 259 257 256 255 255 254 252 252 253 252 253
26 22 18 14 12 8 356 346 337 314 306 310 310 310 306 304 303 301 301 300 296 292 285 282 283 287 285 282 278 270 269 266 262 258 256 256 256 257 256 255 255 254 254
12 11 9 5 360 351 342 338 328 321 318 317 313 310 307 308 304 301 301 299 296 293 288 286 287 287 287 285 284 283 277 268 265 260 257 258 257 256 255 255 255 255 255
359 359 355 353 349 344 337 331 326 318 312 307 306 305 304 305 305 300 297 296 294 291 288 289 290 290 287 287 286 285 282 277 271 267 264 262 261 260 260 259 256 255 256
346 342 338 337 336 335 332 327 319 313 310 304 302 302 303 303 300 300 298 296 293 289 288 291 292 290 291 291 289 287 281 278 275 272 270 270 268 267 266 263 259 256 255
344 339 334 328 324 322 322 320 317 314 309 308 307 303 303 306 300 299 299 295 292 291 291 289 289 288 290 289 290 288 282 278 277 276 273 274 271 268 267 266 264 261 260
335 333 330 326 322 318 314 312 312 310 305 306 306 304 305 303 303 303 301 296 294 292 292 293 291 289 290 289 291 289 283 279 278 278 275 273 272 268 266 266 266 263 262
329 328 325 324 322 317 313 308 307 304 302 303 303 302 303 303 302 301 301 299 297 295 293 293 294 294 293 293 293 291 285 283 281 279 277 273 272 272 269 269 268 266 263
325 323 320 317 315 313 311 308 304 302 300 298 298 299 299 299 298 299 300 299 298 296 293 292 290 291 292 292 291 290 287 285 282 280 277 274 275 274 273 271 269 268 265
321 318 315 313 310 308 306 304 305 301 298 296 296 296 296 296 295 295 296 295 295 294 292 291 289 288 289 290 290 288 287 286 283 281 279 278 276 275 274 273 270 268 266
317 315 312 309 307 305 302 301 300 298 295 295 294 295 295 293 293 294 293 292 293 292 291 291 290 289 289 289 288 288 287 287 285 283 282 280 278 277 276 274 272 270 268
313 311 309 308 306 305 302 302 300 298 297 294 293 293 293 292 292 294 292 292 292 292 291 291 290 290 289 289 288 285 285 285 285 283 282 283 281 279 277 275 274 271 269
310 310 308 306 305 304 303 302 300 298 296 293 292 292 291 292 293 292 292 293 292 292 290 290 289 289 288 287 287 286 286 285 284 282 282 283 283 280 278 277 276 274 271
308 308 306 306 305 303 303 303 300 298 295 293 292 290 290 291 292 294 293 293 293 292 293 292 290 289 288 288 288 287 287 286 284 283 281 281 281 280 278 277 276 272 271
306 306 306 305 303 303 302 300 299 299 295 292 291 291 291 290 292 292 293 292 292 293 293 293 291 288 287 287 287 287 286 285 284 283 283 281 280 280 279 278 276 273 272
305 305 305 305 304 303 302 301 298 297 296 294 293 292 291 290 291 292 292 293 293 292 293 292 291 289 287 286 286 287 287 286 285 285 285 282 280 279 278 278 277 275 273
304 304 304 305 304 304 303 301 299 296 296 295 293 291 291 290 291 291 291 292 292 292 292 292 291 288 287 287 287 288 288 286 286 285 284 283 281 280 279 278 277 275 274
305 305 305 305 304 302 301 299 297 296 295 295 294 293 292 291 292 292 291 291 291 292 292 291 290 288 286 287 286 288 289 288 286 286 283 281 280 280 278 276 275 275 274
305 306 305 305 304 302 301 299 297 296 294 293 293 293 293 291 291 291 291 291 291 291 292 291 290 289 288 288 287 286 288 288 288 287 287 284 280 279 277 276 275 276 274
305 305 304 304 303 303 301 300 298 297 294 293 293 294 293 292 292 292 291 290 289 289 290 291 291 291 289 288 287 286 286 286 288 289 288 286 286 282 279 278 277 276 276
304 304 303 303 302 302 300 299 298 296 295 293 293 293 294 295 294 293 293 292 291 290 290 290 291 291 290 288 287 286 285 285 287 287 288 287 286 283 281 280 278 276 275
303 303 302 302 302 301 299 298 298 297 294 292 293 293 294 295 295 295 293 292 291 289 289 290 291 292 290 288 286 285 285 285 286 285 285 286 285 283 281 280 278 277 276
302 303 302 301 301 300 299 298 298 297 296 295 294 294 294 294 294 295 294 293 291 291 290 290 292 293 290 287 285 284 284 285 286 285 284 284 284 283 282 282 279 278 276